�������l�o���
Date,Time,MP-1(��Sv/h),MP-2(��Sv/h),MP-3(��Sv/h),MP-4(��Sv/h),MP-5(��Sv/h),MP-6(��Sv/h),MP-7(��Sv/h),MP-8(��Sv/h),����,����(m/s),���J
2023/10/31,00:00,0.517,0.785,0.488,0.986,0.709,0.315,0.568,0.528,���쐼,1.5,��
2023/10/31,00:10,0.516,0.782,0.487,0.988,0.709,0.315,0.569,0.528,���쐼,1.4,��
2023/10/31,00:20,0.518,0.781,0.485,0.987,0.710,0.314,0.568,0.528,���쐼,1.2,��
2023/10/31,00:30,0.517,0.783,0.487,0.985,0.710,0.314,0.569,0.527,���쐼,1.9,��
2023/10/31,00:40,0.517,0.783,0.487,0.987,0.709,0.313,0.568,0.527,���쐼,2.3,��
2023/10/31,00:50,0.516,0.782,0.487,0.987,0.708,0.315,0.568,0.528,�쐼,3.0,��
2023/10/31,01:00,0.516,0.781,0.486,0.985,0.707,0.316,0.570,0.528,���쐼,2.9,��
2023/10/31,01:10,0.517,0.784,0.485,0.987,0.711,0.314,0.570,0.527,�쐼,3.3,��
2023/10/31,01:20,0.517,0.782,0.487,0.985,0.708,0.313,0.568,0.527,���쐼,3.0,��
2023/10/31,01:30,0.514,0.781,0.487,0.987,0.708,0.314,0.568,0.528,���쐼,2.6,��
2023/10/31,01:40,0.516,0.785,0.486,0.986,0.708,0.314,0.567,0.528,���쐼,2.6,��
2023/10/31,01:50,0.516,0.783,0.487,0.987,0.710,0.315,0.567,0.527,���쐼,2.3,��
2023/10/31,02:00,0.516,0.783,0.485,0.987,0.710,0.314,0.568,0.528,��,1.7,��
2023/10/31,02:10,0.516,0.784,0.485,0.985,0.706,0.314,0.569,0.527,���k��,0.8,��
2023/10/31,02:20,0.516,0.784,0.486,0.987,0.709,0.314,0.568,0.527,���k��,0.8,��
2023/10/31,02:30,0.517,0.783,0.487,0.987,0.710,0.314,0.568,0.529,���k��,1.5,��
2023/10/31,02:40,0.518,0.783,0.487,0.986,0.710,0.314,0.569,0.529,���k��,1.5,��
2023/10/31,02:50,0.517,0.784,0.486,0.987,0.709,0.315,0.568,0.528,���k��,1.2,��
2023/10/31,03:00,0.517,0.782,0.485,0.987,0.709,0.314,0.568,0.528,���k��,2.0,��
2023/10/31,03:10,0.516,0.781,0.488,0.988,0.709,0.314,0.568,0.527,���k��,1.5,��
2023/10/31,03:20,0.517,0.780,0.486,0.988,0.707,0.315,0.569,0.529,���k��,1.7,��
2023/10/31,03:30,0.516,0.784,0.486,0.985,0.710,0.314,0.569,0.527,���k��,2.0,��
2023/10/31,03:40,0.517,0.783,0.487,0.988,0.709,0.314,0.569,0.528,�k��,1.2,��
2023/10/31,03:50,0.516,0.783,0.486,0.986,0.709,0.314,0.569,0.528,���k��,1.2,��
2023/10/31,04:00,0.516,0.783,0.487,0.985,0.708,0.315,0.567,0.527,���k��,0.9,��
2023/10/31,04:10,0.517,0.782,0.488,0.984,0.709,0.314,0.568,0.527,�k��,1.5,��
2023/10/31,04:20,0.516,0.781,0.488,0.985,0.709,0.315,0.568,0.527,���k��,1.5,��
2023/10/31,04:30,0.515,0.782,0.488,0.987,0.710,0.314,0.568,0.527,���k��,1.9,��
2023/10/31,04:40,0.516,0.781,0.487,0.985,0.709,0.315,0.569,0.528,���k��,1.4,��
2023/10/31,04:50,0.515,0.780,0.488,0.985,0.709,0.314,0.569,0.528,���k��,1.4,��
2023/10/31,05:00,0.517,0.782,0.486,0.987,0.709,0.315,0.567,0.528,���k��,1.9,��
2023/10/31,05:10,0.516,0.783,0.487,0.986,0.708,0.314,0.567,0.527,�k��,1.7,��
2023/10/31,05:20,0.515,0.781,0.486,0.987,0.708,0.315,0.568,0.527,���k��,1.7,��
2023/10/31,05:30,0.516,0.782,0.486,0.987,0.711,0.315,0.568,0.527,�k��,1.7,��
2023/10/31,05:40,0.516,0.783,0.486,0.983,0.707,0.315,0.567,0.530,�k��,1.9,��
2023/10/31,05:50,0.516,0.782,0.487,0.986,0.707,0.313,0.566,0.527,���k��,1.5,��
2023/10/31,06:00,0.515,0.782,0.485,0.986,0.708,0.314,0.569,0.528,���k��,0.9,��
2023/10/31,06:10,0.515,0.781,0.487,0.985,0.708,0.315,0.568,0.527,���k��,1.4,��
2023/10/31,06:20,0.518,0.784,0.485,0.985,0.708,0.314,0.567,0.528,�k��,1.1,��
2023/10/31,06:30,0.517,0.782,0.486,0.985,0.707,0.313,0.569,0.528,�k��,0.9,��
2023/10/31,06:40,0.515,0.782,0.486,0.987,0.707,0.314,0.568,0.527,�k��,1.7,��
2023/10/31,06:50,0.516,0.781,0.487,0.985,0.707,0.313,0.568,0.527,�k�k��,0.6,��
2023/10/31,07:00,0.515,0.783,0.488,0.985,0.709,0.314,0.567,0.529,�k�k��,0.8,��
2023/10/31,07:10,0.516,0.784,0.486,0.985,0.709,0.315,0.567,0.529,�k,0.8,��
2023/10/31,07:20,0.516,0.783,0.485,0.984,0.709,0.314,0.568,0.528,-,CALM,��
2023/10/31,07:30,0.516,0.786,0.485,0.986,0.712,0.321,0.567,0.529,�k�k��,0.9,��
2023/10/31,07:40,0.517,0.785,0.486,0.985,0.710,0.315,0.569,0.529,�k�k��,1.2,��
2023/10/31,07:50,0.516,0.785,0.485,0.988,0.710,0.314,0.567,0.527,�k,1.5,��
2023/10/31,08:00,0.517,0.783,0.488,0.989,0.709,0.315,0.568,0.529,�k�k��,2.6,��
2023/10/31,08:10,0.517,0.783,0.487,0.987,0.709,0.314,0.569,0.528,�k,2.6,��
2023/10/31,08:20,0.514,0.783,0.489,0.985,0.708,0.314,0.567,0.529,�k,3.0,��
2023/10/31,08:30,0.514,0.783,0.488,0.986,0.709,0.314,0.568,0.527,�k,3.4,��
2023/10/31,08:40,0.517,0.782,0.488,0.987,0.711,0.315,0.567,0.528,�k,3.2,��
2023/10/31,08:50,0.515,0.782,0.487,0.987,0.709,0.315,0.566,0.528,�k,2.3,��
2023/10/31,09:00,0.512,0.781,0.487,0.988,0.710,0.316,0.569,0.529,�k�k��,2.5,��
2023/10/31,09:10,0.512,0.783,0.489,0.988,0.709,0.315,0.568,0.529,�k,2.5,��
2023/10/31,09:20,0.512,0.781,0.488,0.986,0.712,0.315,0.568,0.530,�k,2.3,��
2023/10/31,09:30,0.512,0.782,0.488,0.987,0.709,0.315,0.569,0.529,�k�k��,2.6,��
2023/10/31,09:40,0.511,0.780,0.489,0.986,0.708,0.315,0.568,0.529,�k�k��,2.6,��
2023/10/31,09:50,0.514,0.783,0.488,0.986,0.708,0.314,0.566,0.530,�k�k��,2.2,��
2023/10/31,10:00,0.518,0.782,0.488,0.990,0.709,0.313,0.567,0.529,�k��,3.0,��
2023/10/31,10:10,0.518,0.784,0.488,0.987,0.706,0.312,0.567,0.529,�k��,3.1,��
2023/10/31,10:20,0.518,0.782,0.486,0.986,0.708,0.315,0.567,0.529,�k�k��,3.1,��
2023/10/31,10:30,0.518,0.785,0.487,0.987,0.709,0.314,0.568,0.527,�k��,3.4,��
2023/10/31,10:40,0.516,0.784,0.485,0.986,0.710,0.314,0.568,0.527,�k��,3.1,��
2023/10/31,10:50,0.515,0.783,0.487,0.988,0.710,0.315,0.568,0.529,�k�k��,3.3,��
2023/10/31,11:00,0.518,0.785,0.487,0.987,0.711,0.314,0.568,0.529,�k��,2.6,��
2023/10/31,11:10,0.517,0.781,0.488,0.987,0.709,0.314,0.567,0.529,�k��,2.5,��
2023/10/31,11:20,0.517,0.783,0.487,0.987,0.709,0.312,0.567,0.528,�k��,2.8,��
2023/10/31,11:30,0.519,0.783,0.487,0.987,0.710,0.313,0.569,0.528,�k��,2.9,��
2023/10/31,11:40,0.519,0.783,0.486,0.989,0.712,0.313,0.566,0.527,���k��,2.6,��
2023/10/31,11:50,0.519,0.783,0.485,0.988,0.710,0.313,0.568,0.528,��,2.6,��
2023/10/31,12:00,0.519,0.785,0.488,0.987,0.713,0.313,0.568,0.529,���k��,2.2,��
2023/10/31,12:10,0.519,0.785,0.488,0.988,0.710,0.315,0.568,0.528,���k��,2.2,��
2023/10/31,12:20,0.518,0.784,0.486,0.989,0.711,0.315,0.569,0.529,���k��,2.3,��
2023/10/31,12:30,0.520,0.787,0.486,0.989,0.709,0.314,0.568,0.528,��,1.5,��
2023/10/31,12:40,0.518,0.787,0.487,0.987,0.712,0.314,0.569,0.526,��,2.3,��
2023/10/31,12:50,0.520,0.787,0.487,0.988,0.713,0.314,0.567,0.527,���쓌,2.6,��
2023/10/31,13:00,0.519,0.786,0.488,0.989,0.712,0.314,0.568,0.527,���쓌,1.7,��
2023/10/31,13:10,0.519,0.784,0.488,0.987,0.712,0.313,0.568,0.526,��,2.6,��
2023/10/31,13:20,0.518,0.786,0.490,0.986,0.712,0.313,0.567,0.529,�쓌,2.6,��
2023/10/31,13:30,0.518,0.785,0.487,0.989,0.713,0.313,0.568,0.527,���쓌,2.2,��
2023/10/31,13:40,0.518,0.784,0.488,0.988,0.711,0.313,0.568,0.527,���쓌,2.8,��
2023/10/31,13:50,0.518,0.785,0.489,0.987,0.711,0.313,0.566,0.528,�쓌,2.5,��
2023/10/31,14:00,0.518,0.785,0.489,0.987,0.712,0.313,0.568,0.527,�쓌,3.5,��
2023/10/31,14:10,0.520,0.785,0.487,0.985,0.713,0.314,0.569,0.528,��쓌,3.3,��
2023/10/31,14:20,0.517,0.786,0.487,0.986,0.710,0.316,0.568,0.527,�쓌,3.7,��
2023/10/31,14:30,0.520,0.786,0.488,0.987,0.712,0.314,0.569,0.526,��쓌,3.6,��
2023/10/31,14:40,0.517,0.786,0.488,0.986,0.712,0.316,0.569,0.526,��쓌,3.3,��
2023/10/31,14:50,0.518,0.787,0.489,0.988,0.712,0.316,0.568,0.525,��쓌,4.5,��
2023/10/31,15:00,0.518,0.785,0.488,0.990,0.712,0.315,0.567,0.527,��,4.1,��
2023/10/31,15:10,0.518,0.785,0.487,0.988,0.714,0.315,0.567,0.527,��쓌,5.0,��
2023/10/31,15:20,0.519,0.785,0.487,0.990,0.713,0.316,0.568,0.528,��쓌,4.5,��
2023/10/31,15:30,0.517,0.787,0.489,0.987,0.711,0.317,0.567,0.529,��쓌,4.7,��
2023/10/31,15:40,0.519,0.786,0.488,0.987,0.712,0.315,0.567,0.529,��쓌,3.9,��
2023/10/31,15:50,0.519,0.787,0.488,0.988,0.711,0.317,0.568,0.528,��,5.1,��
2023/10/31,16:00,0.518,0.786,0.488,0.985,0.713,0.317,0.568,0.529,��,3.8,��
2023/10/31,16:10,0.518,0.787,0.487,0.985,0.712,0.316,0.569,0.531,��,3.7,��
2023/10/31,16:20,0.519,0.786,0.488,0.984,0.712,0.316,0.569,0.531,��,4.4,��
2023/10/31,16:30,0.519,0.786,0.486,0.987,0.713,0.316,0.570,0.530,��,4.3,��
2023/10/31,16:40,0.519,0.789,0.488,0.987,0.712,0.313,0.569,0.530,��,5.0,��
2023/10/31,16:50,0.519,0.788,0.487,0.985,0.712,0.317,0.571,0.530,��,5.5,��
2023/10/31,17:00,0.517,0.791,0.489,0.990,0.714,0.316,0.569,0.530,��,5.4,��
2023/10/31,17:10,0.518,0.790,0.490,0.988,0.715,0.315,0.569,0.528,��,4.7,��
2023/10/31,17:20,0.519,0.789,0.490,0.987,0.716,0.316,0.569,0.528,��,4.5,��
2023/10/31,17:30,0.521,0.790,0.489,0.989,0.714,0.316,0.569,0.530,��,5.4,��
2023/10/31,17:40,0.521,0.790,0.490,0.989,0.715,0.316,0.570,0.531,��,5.8,��
2023/10/31,17:50,0.521,0.790,0.492,0.988,0.716,0.316,0.568,0.530,��쐼,5.7,��
2023/10/31,18:00,0.522,0.790,0.490,0.991,0.713,0.316,0.568,0.530,��쐼,6.5,��
2023/10/31,18:10,0.521,0.790,0.489,0.988,0.717,0.316,0.569,0.529,��,7.5,��
2023/10/31,18:20,0.522,0.789,0.490,0.990,0.715,0.316,0.569,0.528,��,7.5,��
2023/10/31,18:30,0.521,0.790,0.489,0.989,0.715,0.316,0.568,0.529,��,8.0,��
2023/10/31,18:40,0.519,0.789,0.489,0.989,0.714,0.316,0.569,0.529,��쐼,7.7,��
2023/10/31,18:50,0.521,0.791,0.491,0.990,0.712,0.317,0.569,0.527,��쐼,6.7,��
2023/10/31,19:00,0.522,0.789,0.491,0.990,0.714,0.316,0.568,0.528,��쐼,5.7,��
2023/10/31,19:10,0.521,0.788,0.491,0.989,0.715,0.317,0.569,0.529,��쐼,5.6,��
2023/10/31,19:20,0.521,0.792,0.491,0.987,0.715,0.317,0.570,0.529,�쐼,5.3,��
2023/10/31,19:30,0.520,0.791,0.491,0.989,0.714,0.318,0.569,0.530,��쐼,5.9,��
2023/10/31,19:40,0.520,0.791,0.490,0.990,0.716,0.315,0.568,0.530,��쐼,5.1,��
2023/10/31,19:50,0.520,0.789,0.491,0.989,0.713,0.315,0.569,0.528,��쐼,4.6,��
2023/10/31,20:00,0.519,0.789,0.491,0.988,0.714,0.317,0.568,0.529,��쐼,4.2,��
2023/10/31,20:10,0.521,0.790,0.490,0.988,0.714,0.316,0.569,0.531,��쐼,4.0,��
2023/10/31,20:20,0.520,0.788,0.490,0.988,0.716,0.317,0.569,0.529,��쐼,3.5,��
2023/10/31,20:30,0.522,0.788,0.490,0.987,0.714,0.317,0.569,0.529,�쐼,3.4,��
2023/10/31,20:40,0.520,0.788,0.490,0.989,0.715,0.316,0.568,0.529,��쐼,4.0,��
2023/10/31,20:50,0.520,0.788,0.489,0.990,0.714,0.317,0.568,0.529,��쐼,3.7,��
2023/10/31,21:00,0.521,0.789,0.491,0.988,0.714,0.316,0.569,0.530,��쐼,3.7,��
2023/10/31,21:10,0.520,0.787,0.488,0.990,0.716,0.317,0.568,0.529,��쐼,3.2,��
2023/10/31,21:20,0.521,0.789,0.490,0.988,0.713,0.316,0.569,0.529,��,3.3,��
2023/10/31,21:30,0.519,0.788,0.491,0.988,0.713,0.315,0.568,0.529,��,3.3,��
2023/10/31,21:40,0.520,0.789,0.490,0.989,0.714,0.317,0.569,0.529,��쐼,3.3,��
2023/10/31,21:50,0.521,0.789,0.490,0.988,0.714,0.315,0.569,0.529,��쐼,3.7,��
2023/10/31,22:00,0.520,0.787,0.490,0.987,0.715,0.317,0.569,0.528,��쐼,5.1,��
2023/10/31,22:10,0.519,0.788,0.490,0.990,0.714,0.316,0.568,0.529,��쐼,5.1,��
2023/10/31,22:20,0.520,0.789,0.490,0.988,0.714,0.317,0.571,0.529,��쐼,5.7,��
2023/10/31,22:30,0.521,0.789,0.489,0.990,0.713,0.316,0.568,0.528,��쐼,5.5,��
2023/10/31,22:40,0.520,0.789,0.490,0.988,0.714,0.316,0.570,0.530,��쐼,5.9,��
2023/10/31,22:50,0.520,0.788,0.491,0.990,0.714,0.317,0.567,0.528,��쐼,5.0,��
2023/10/31,23:00,0.522,0.787,0.489,0.990,0.715,0.316,0.569,0.529,��쐼,5.7,��
2023/10/31,23:10,0.520,0.790,0.489,0.991,0.713,0.317,0.569,0.530,�쐼,5.9,��
2023/10/31,23:20,0.520,0.789,0.490,0.988,0.713,0.316,0.567,0.529,��쐼,5.4,��
2023/10/31,23:30,0.521,0.788,0.491,0.988,0.714,0.316,0.568,0.529,�쐼,4.6,��
2023/10/31,23:40,0.520,0.787,0.489,0.987,0.714,0.316,0.567,0.528,��쐼,4.8,��
2023/10/31,23:50,0.519,0.789,0.489,0.988,0.712,0.316,0.568,0.530,��쐼,4.4,��
